#timestamp,LO_Frequency,Hit,StdDev 
1516896015.5,286047003.8,N
1516896035.4,286047003.9,N
1516896055.2,286047004.2,N
1516896075.1,286047004.3,N
1516896076.0,286047004.3,N
1516896095.8,286047003.7,N
1516896115.6,286047004.4,Y
1516896135.5,286046999.0,P
1516896155.3,286046998.3,N
1516896175.2,286047000.3,N
1516896195.9,286047000.2,N
1516896215.7,286047002.3,N
1516896235.6,286047002.4,N
1516896255.4,286047001.8,N
1516896275.2,286047003.5,N
1516896295.1,286047003.0,N
1516896296.0,286047003.0,N
1516896315.8,286047005.7,Y
1516896335.7,286047002.7,P
1516896355.5,286047001.6,P
1516896375.3,286047001.3,N
1516896395.2,286047004.3,Y
1516896415.0,286047001.7,P
1516896415.9,286047001.7,P
1516896435.8,286047003.2,P
1516896455.6,286047001.7,N
1516896475.4,286047003.8,Y
1516896495.3,286047000.9,P
1516896515.1,286046998.1,P
1516896535.8,286047000.5,N
1516896555.7,286046998.7,N
1516896575.5,286047001.2,N
1516896595.4,286046998.1,N
1516896615.2,286047002.4,N
1516896635.0,286047002.5,N
1516896635.9,286047002.5,N
1516896655.8,286047004.0,N
1516896675.6,286047005.6,N
1516896695.5,286047005.3,N
1516896715.3,286047004.7,N
1516896735.1,286047008.7,Y
1516896755.9,286047008.7,P
1516896775.7,286047010.5,P
1516896795.5,286047009.3,N
1516896815.4,286047010.5,Y
1516896835.2,286047001.4,P
1516896855.1,286047005.8,N
1516896856.0,286047005.8,N
1516896875.8,286047006.8,N
1516896895.6,286047006.2,N
1516896915.5,286047010.5,Y
1516896935.3,286047002.9,P
1516896955.2,286047006.0,P
1516896975.9,286047005.5,P
1516896995.7,286047005.0,Y
1516897015.6,286046999.7,P
1516897035.4,286047001.1,N
1516897055.3,286047000.3,N
1516897075.1,286047001.0,N
1516897076.0,286047001.0,N
1516897095.8,286047000.5,N
1516897115.7,286047002.5,N
1516897135.5,286047000.1,N
1516897155.3,286046998.7,N
1516897175.2,286046998.4,N
1516897195.0,286046996.9,N
1516897195.9,286046996.9,N
1516897215.8,286046999.0,N
1516897235.6,286046998.9,N
1516897255.4,286046999.6,N
1516897275.3,286046998.1,N
1516897295.1,286046999.0,N
1516897315.8,286046999.3,N
1516897335.7,286046999.1,N
1516897355.5,286046999.1,N
1516897375.4,286046999.4,N
1516897395.2,286046998.4,N
1516897415.0,286046999.1,N
1516897415.9,286046999.1,N
1516897435.8,286046998.7,N
1516897455.6,286046998.1,N
1516897475.4,286047001.5,N
1516897495.3,286047001.7,N
1516897515.1,286047003.9,N
1516897535.9,286047004.0,N
1516897555.7,286047003.3,N
1516897575.5,286047006.0,Y
1516897595.4,286047004.7,P
1516897615.2,286047005.5,N
1516897635.1,286047006.0,N
1516897636.0,286047006.0,N
1516897655.8,286047003.1,N
1516897675.6,286047004.2,N
1516897695.5,286047003.6,N
1516897715.3,286047003.1,N
1516897735.1,286047004.2,N
1516897755.9,286047005.6,Y
1516897775.7,286047000.5,P
1516897795.6,286047001.1,N
1516897815.4,286046998.6,N
1516897835.2,286047000.1,N
1516897855.1,286047002.5,N
1516897856.0,286047002.5,N
1516897875.8,286047003.3,N
1516897895.6,286047004.2,N
1516897915.5,286047003.1,N
1516897935.3,286047004.1,N
1516897955.2,286047001.7,N
1516897975.9,286047002.6,N
1516897995.7,286047001.4,N
1516898015.6,286047003.5,N
1516898035.4,286047003.4,N
1516898055.2,286047003.9,N
1516898075.1,286047003.1,N
1516898076.0,286047003.1,N
1516898095.8,286047004.9,Y
1516898115.7,286047002.1,P
1516898135.5,286047002.3,P
1516898155.3,286047001.7,P
1516898175.2,286047003.1,Y
1516898195.0,286046999.7,P
1516898195.9,286046999.7,N
1516898215.8,286047002.6,N
1516898235.6,286047002.0,N
1516898255.4,286047001.3,N
1516898275.3,286047004.1,Y
1516898295.1,286047003.8,P
1516898315.8,286047003.3,N
1516898335.7,286047003.8,P
1516898355.5,286047003.5,Y
1516898375.4,286047000.0,P
1516898395.2,286047000.2,N
1516898415.0,286047000.6,N
1516898415.9,286047000.6,N
1516898435.8,286047000.4,N
1516898455.6,286047000.5,N
1516898475.4,286047002.3,N
1516898495.3,286047002.8,N
1516898515.1,286047001.5,N
1516898535.9,286047000.2,N
1516898555.7,286047002.5,N
1516898575.5,286047002.1,N
1516898595.4,286047006.0,Y
1516898615.2,286047001.7,P
1516898635.0,286047000.1,N
1516898635.9,286047000.1,N
1516898655.8,286047002.7,Y
1516898675.6,286046998.3,P
1516898695.5,286046999.8,N
1516898715.3,286047004.0,P
1516898735.1,286047002.1,N
1516898755.9,286046999.8,N
1516898775.7,286047000.4,N
1516898795.6,286046999.7,N
1516898815.4,286047001.4,N
1516898835.2,286047005.8,Y
1516898855.1,286047005.6,P
1516898856.0,286047005.6,N
1516898875.8,286047005.9,N
1516898895.6,286047003.0,N
1516898915.5,286047005.4,N
1516898935.3,286047007.6,Y
1516898955.2,286047001.4,P
1516898975.9,286047001.7,N
1516898995.7,286047002.6,N
1516899015.6,286047000.5,N
1516899035.4,286047002.8,N
1516899055.3,286047004.0,Y
1516899075.1,286047002.6,P
1516899076.0,286047002.6,P
1516899095.8,286047003.2,P
1516899115.7,286047003.3,Y
1516899135.5,286047003.9,P
1516899155.3,286047003.1,P
1516899175.2,286047003.3,P
1516899195.0,286047005.2,Y
1516899195.9,286047005.2,P
1516899215.8,286047003.3,P
1516899235.6,286047003.7,P
1516899255.4,286047004.2,Y
1516899275.3,286047002.4,P
1516899295.1,286047002.1,N
1516899315.9,286047001.9,N
1516899335.7,286047001.8,N
1516899355.5,286047002.8,Y
1516899375.4,286046997.3,P
1516899395.2,286046997.1,N
1516899415.0,286046996.8,N
1516899415.9,286046996.8,N
1516899435.8,286046998.7,N
1516899455.6,286047000.9,N
1516899475.5,286046999.8,N
1516899495.3,286046998.5,N
1516899515.1,286047000.9,N
1516899535.9,286047000.7,N
1516899555.7,286047001.2,N
1516899575.5,286046998.2,N
1516899595.4,286046998.6,N
